Tracking 27420 objects as of 27-May-2023
HD Live streaming from Space Station
objects crossing your sky now

DELTA 1 DEB

Track DELTA 1 DEB now!
10-day predictions


NORAD ID: 8956
Int'l Code: 1975-004AN
Perigee: 630.0 km
Apogee: 668.3 km
Inclination: 98.3 °
Period: 97.6 minutes
Semi major axis: 7020 km
RCS: 1.9274 m2 (large)
Launch date: January 22, 1975
Source: United States (US)
Launch site: AIR FORCE WESTERN TEST RANGE (AFWTR)

Note: This is SATELLITE DEBRIS
Your satellite tracking list
Your tracking list is empty




NASA's NSSDC Master Catalog

Two Line Element Set (TLE):
1 08956U 75004AN  23146.85898177  .00001959  00000-0  29086-3 0  9995
2 08956  98.2544 274.3615 0027273 269.2125  90.5959 14.75992649496538
Source of the keplerian elements: AFSPC